GFSNIL_prec_radar_021.txt.gz
Reflectivity
-20 -20 -20 -20 -20 -20 -20 -20 -20 -20 -20 -20 -20 -20 -20 -20 -20 -20 -20 -20 -20 -20
-20 -20 -20 -20 -20 -20 -20 -20 -20 -20 -20 -20 -20 -20 -20 -20 -20 -20 -20 -20 -20 -20
-20 -20 -20 -20 -20 7 -20 5 -20 -20 -20 -20 -20 -20 -20 -20 -20 -20 -20 -20 -20 -20
-20 -20 -20 -18 -20 -20 -10 -20 -20 -20 -20 -20 -20 -20 -20 -20 -20 -20 -20 -20 -20 -20
-20 -20 -19 -20 -19 -20 -19 -20 -20 -20 -20 -20 -20 -20 -20 -20 -20 -20 -20 -20 -20 -20
-20 -18 -18 -20 -20 -20 -20 -20 -20 -20 -20 -20 -20 -20 -20 -20 -20 -20 -20 -20 -20 -20
-20 -20 -20 -20 -20 -20 -20 -20 -20 -20 -20 -20 -20 -6 4 -20 -20 -20 -20 -20 -20 -20
-20 -20 -20 -20 -18 -20 -20 -16 -20 -20 -20 -2 3 -5 -3 -18 -20 -20 -20 -20 -20 -20
-20 -20 -20 -20 -20 -13 -20 5 -18 -5 5 -7 -20 -15 -15 -20 -20 -20 -20 -20 -20 -20
-20 -20 -17 -11 19 8 3 8 9 -1 -20 -11 -19 -20 -20 -20 -20 -20 -20 -20 -20 -20
-19 -19 14 5 10 7 16 15 -14 -14 -9 -20 -20 -20 -20 -20 -20 -20 -20 -20 -20 -20
-0 -13 17 17 15 17 10 -1 -8 -18 -20 -20 -20 -20 -20 -20 -20 -20 -20 -20 -20 -20
-18 32 22 21 13 17 -4 -7 -6 -20 -20 -20 -20 -20 -20 -20 -20 -20 -20 -20 -20 -20
23 27 19 -5 -14 -8 -17 -14 -20 -20 -20 -20 -20 -20 -20 -20 -20 -20 -20 -20 -20 -20

GFSNIL_prec_radar_024.txt.gz
Reflectivity
-20 -20 -20 -20 -13 6 21 25 -9 12 -14 -20 -20 -20 -20 -20 -20 -20 -20 -20 -20 -20
-20 -20 -20 8 2 -9 13 9 15 -20 -20 -19 -20 -20 -20 -20 -20 -20 -20 -20 -20 -20
-20 -20 -16 -20 2 24 8 -15 -20 -20 -20 -20 -20 -20 -20 -20 -20 -20 -20 -20 -20 -20
-20 -4 7 17 1 -17 -20 -19 -7 -20 -20 -20 -20 -20 -20 -20 -20 -20 -20 -20 -20 -20
-20 -20 -20 -20 -20 -20 -20 -20 -20 -20 -20 -20 -20 -20 -20 -20 -20 -20 -20 -20 -20 -20
-20 -20 -20 -20 -20 -20 -20 -20 -20 -20 -20 -20 -20 -20 -20 -20 -20 -20 -20 -20 -20 -20
-20 -20 -20 -20 -20 -20 -20 -20 -20 -20 -20 -20 -20 -20 -20 -20 -20 -20 -20 -20 -20 -20
-20 -20 -20 -20 -20 -20 -20 -20 -20 -10 -20 -20 -20 -20 -20 -20 -20 -20 -20 -20 -20 -20
-20 -20 -20 -20 -20 -20 -20 -14 11 3 -20 -20 -20 -20 -20 -20 -20 -20 -20 -20 -20 -20
-20 -20 -20 -20 -20 -20 -9 20 13 -20 -20 -20 -20 -20 -20 -20 -20 -20 -20 -20 -20 -20
-20 -20 -20 -20 -20 12 21 18 -13 -20 -20 -20 -20 -20 -20 -20 -20 -20 -20 -20 -20 -20
-20 -19 4 11 24 15 3 -20 -20 -20 -20 -20 -20 -20 -20 -20 -20 -20 -20 -20 -20 -20
0 27 15 37 32 -3 -20 -20 -20 -20 -20 -20 -20 -20 -20 -20 -20 -20 -20 -20 -20 -20
33 28 25 10 9 -20 -20 -20 -20 -20 -20 -20 -20 -20 -20 -20 -20 -20 -20 -20 -20 -20

GFSNIL_prec_radar_027.txt.gz
Reflectivity
-20 -20 -20 -20 -20 -20 -20 -20 -10 24 18 6 -20 -20 -20 -20 -20 -20 -20 -20 -20 -20
-20 -20 -20 -4 3 -20 -20 -15 22 24 18 -20 -20 -20 -20 -20 -20 -20 -20 -20 -20 -20
-20 -19 -11 -20 -20 -16 16 17 21 -12 -20 -20 -20 -20 -20 -20 -20 -20 -20 -20 -20 -20
-10 -11 -20 -20 -20 -11 -7 -9 -20 -20 -20 -20 -20 -20 -6 -20 -20 -20 -20 -20 -20 -20
-20 -20 -20 -20 -20 -20 -20 -20 -20 -20 -20 -20 -20 -10 -20 -20 -20 -20 -20 -20 -20 -20
-16 -20 -16 -20 -20 -20 -20 -20 -20 -20 -20 -20 -3 -20 -20 -20 -20 -20 -20 -20 -20 -20
-20 -20 -20 -10 -20 -20 -20 -20 -20 -20 -20 -6 -20 -20 -20 -20 -20 -20 -20 -20 -20 -20
-17 -20 -20 -20 -20 -20 -20 -20 -19 -17 -2 -20 -20 -20 -20 -20 -20 -20 -20 -20 -20 -20
-14 -20 -20 -14 -20 -20 -20 -19 -15 -12 19 -17 -20 -20 -20 -20 -20 -20 -20 -20 -20 -20
-20 -20 -20 -20 -20 -19 -19 -18 15 28 11 4 -18 -20 -20 -20 -20 -20 -20 -20 -20 -20
-20 -20 -20 -19 -12 8 18 23 27 -1 -7 -20 -20 -20 -20 -20 -20 -20 -20 -20 -20 -20
-20 -20 -3 -18 10 19 23 26 8 -6 -20 -20 -20 -20 -20 -20 -20 -20 -20 -20 -20 -20
-19 -14 4 11 24 30 18 2 -20 -20 -20 -20 -20 -20 -20 -20 -20 -20 -20 -20 -20 -20
28 29 30 28 25 24 -3 -20 -20 -20 -20 -20 -20 -20 -20 -20 -20 -20 -20 -20 -20 -20

GFSNIL_prec_radar_030.txt.gz
Reflectivity
-20 15 -17 -20 -20 -20 -20 -20 -20 -19 -15 -19 17 6 -20 -20 -20 -20 -20 -20 -20 -20
4 -20 -20 13 9 -15 -20 -20 -20 -19 -15 8 -20 -20 -20 -20 -20 -20 -20 -20 -20 -20
-18 -20 -20 -5 -19 -4 1 -20 -20 -8 -5 -6 -20 -20 -20 -20 -20 -20 -20 -20 -20 -20
-20 12 14 -20 18 -20 -20 -10 -5 -12 -16 -20 -20 -20 -20 -20 -20 -20 -20 -20 -20 -20
24 21 13 -18 -20 -20 -16 -14 -3 -17 -20 -20 -20 -20 -17 -20 -20 -20 -20 -20 -20 -20
12 -20 -20 -20 -20 -18 -16 -16 -18 -20 -20 -20 -20 -7 -0 -20 -20 -20 -20 -20 -20 -20
0 -20 -20 -20 -20 -16 -14 -3 2 -14 -20 -20 -19 22 -4 -20 -20 -20 -20 -20 -20 -20
-20 -20 -20 -4 -20 -20 -14 -19 -3 4 -20 -19 18 23 -12 -20 -20 -20 -20 -20 -20 -20
-20 6 -10 -20 -20 -18 -18 -12 6 7 -12 10 29 -16 -20 -20 -20 -20 -20 -20 -20 -20
-19 -5 6 -13 -10 -3 -19 4 8 -18 16 26 -9 5 -20 -20 -20 -20 -20 -20 -20 -20
-20 -7 13 -2 4 13 5 4 33 29 1 -7 8 4 -20 -20 -20 -20 -20 -20 -20 -20
3 7 7 14 13 21 27 39 25 6 23 4 -20 -20 -20 -20 -20 -20 -20 -20 -20 -20
-20 -20 -7 13 14 13 19 4 24 -3 -20 -20 -20 -20 -20 -20 -20 -20 -20 -20 -20 -20
-20 -8 1 -9 5 20 12 -14 -20 -20 -20 -20 -20 -20 -20 -20 -20 -20 -20 -20 -20 -20

GFSNIL_prec_radar_033.txt.gz
Reflectivity
-20 -20 -20 -20 17 1 -4 -20 -20 -20 -20 -20 -20 9 4 23 -20 -20 -20 -20 -20 -20
-20 -20 -20 -20 24 -11 7 -20 -20 -20 -14 -13 -20 -15 14 -20 -20 -20 -20 -20 -20 -20
-20 -20 -13 -2 6 19 6 -8 -20 -20 -18 -13 -16 -20 -18 -20 -20 -20 -20 -20 -20 -20
7 -20 23 23 21 18 3 -8 -20 -20 -6 -12 23 -13 -20 -20 -16 -20 -20 -20 -20 -20
25 23 24 23 24 19 -19 -20 -20 -12 1 4 -20 -19 -20 -20 1 -13 -20 -20 -20 -20
-12 23 24 20 16 14 -20 -20 -18 -7 -20 -20 -4 -12 -20 -8 9 -20 -16 -20 -20 -20
18 17 22 17 0 -20 -17 -20 -6 -13 -20 14 -9 -20 -14 29 -15 -20 -20 -20 -20 -20
-20 -20 -8 0 -18 -20 3 -10 -20 -0 -14 -18 -20 -15 36 14 -12 -20 -20 -20 -20 -20
-20 -20 -20 -20 -3 4 2 25 -3 16 3 -13 12 37 25 24 -20 -20 -20 -20 -20 -20
-20 -20 -20 -10 0 4 -1 28 -12 -14 27 32 32 29 18 -11 -20 -20 -20 -20 -20 -20
-20 -20 -20 -20 -20 -6 20 10 14 30 29 15 -12 9 22 -19 -20 -20 -20 -20 -20 -20
-20 -20 -20 -16 -12 -19 -1 27 7 -6 14 7 11 -15 -20 -20 -20 -20 -20 -20 -20 -20
-20 -20 -20 -20 -20 -20 -13 -15 3 -2 -4 -20 -20 -20 -20 -20 -20 -20 -20 -20 -20 -20
-20 -20 -20 -19 -14 -3 -1 -19 -20 -20 -20 -20 -20 -20 -20 -20 -20 -20 -20 -20 -20 -20